Location: Aufkirchen
(47.9603°N, 11.3653°E)
Time: 04:25:00
(UTC+01:00)

Courier 1B Rocket - Pass Details

Date: 05 December 2020
Orbit: 920 x 1202 km, 28.2° (Epoch: 23 January)

Event Time Altitude Azimuth Distance (km) Brightness Sun altitude
Exits shadow 04:32:04 15° 187° (S) 2,747 7.2 -31.9°
Maximum altitude 04:33:41 16° 173° (S) 2,690 7.3 -31.6°
Drops below altitude 10° 04:38:01 10° 139° (SE) 3,127 8.1 -30.9°
Sets 04:42:11 0° 119° (ESE) 4,088 9.1 -30.2°
